Weather History for Chadron, NE

Change the Weather History Date:

Sunday, March 17, 2013

  Actual Average Record
Temperature  
Mean Temperature 44 °F 36 °F  
Max Temperature 62 °F 51 °F 82 °F (2012)
Min Temperature 25 °F 21 °F -10 °F (1965)
Degree Days  
Heating Degree Days 21 29  
Month to date heating degree days 427 531  
Since 1 July heating degree days 5323 5783  
Cooling Degree Days 0 0  
Month to date cooling degree days 0 0  
Year to date cooling degree days 0 0  
Moisture  
Dew Point 26 °F    
Average Humidity 52    
Maximum Humidity 89    
Minimum Humidity 14    
Precipitation  
Precipitation 0.00 in 0.04 in 0.90 in (2003)
Month to date precipitation 0.06 0.62  
Year to date precipitation 0.91 1.59  
Sea Level Pressure  
Sea Level Pressure 29.66 in    
Wind  
Wind Speed 19 mph (WSW)    
Max Wind Speed 49 mph    
Max Gust Speed 66 mph    
Visibility 6 miles    
Events Rain    
T = Trace of Precipitation, MM = Missing Value Source: NWS Daily Summary

Daily Weather History Graph

Daily Weather History Graph

Search for Another Location

Airport:

Trip Planner

Search our weather history database for the weather conditions in past years. The results will help you decide how hot, cold, wet, or windy it might be!

Date:

Astronomy

Mar. 17, 2013 Rise Set
Actual Time 7:00 AM MDT 7:01 PM MDT
Civil Twilight 6:32 AM MDT 7:29 PM MDT
Nautical Twilight 5:59 AM MDT 8:02 PM MDT
Astronomical Twilight 5:25 AM MDT 8:36 PM MDT
Moon 10:06 AM MDT (3/17) 12:19 AM MDT (3/17)
Length of Visible Light 12h 57m
Length of Day
12h 01m
Waxing Crescent, 32% of the Moon is Illuminated
Mar 17
Waxing Crescent
Mar 19
First Quarter
Mar 27
Full
Apr 2
Last Quarter
Apr 10
New

Hourly Weather History & Observations

Time (MDT) Temp. Windchill Dew Point Humidity Pressure Visibility Wind Dir Wind Speed Gust Speed Precip Events Conditions
12:53 AM 28.0 °F 20.8 °F 21.9 °F 78% 29.96 in 7.0 mi SSE 6.9 mph - N/A   Mostly Cloudy
1:39 AM 26.6 °F 22.6 °F 21.2 °F 80% 29.84 in 6.0 mi South 3.5 mph - N/A   Scattered Clouds
1:53 AM 26.1 °F - 21.9 °F 84% 29.94 in 6.0 mi Calm Calm - N/A   Clear
2:53 AM 28.0 °F 22.8 °F 24.1 °F 85% 29.90 in 6.0 mi South 4.6 mph - N/A   Overcast
3:53 AM 28.9 °F 23.9 °F 25.0 °F 85% 29.85 in 6.0 mi SW 4.6 mph - N/A   Scattered Clouds
4:03 AM 28.4 °F 20.4 °F 24.8 °F 86% 29.76 in 5.0 mi SSW 8.1 mph - N/A   Mostly Cloudy
4:25 AM 30.2 °F 19.8 °F 28.4 °F 93% 29.74 in 5.0 mi South 13.8 mph - N/A   Scattered Clouds
4:53 AM 32.0 °F 21.2 °F 28.9 °F 88% 29.80 in 5.0 mi South 16.1 mph - N/A   Partly Cloudy
5:08 AM 32.0 °F 23.0 °F 28.4 °F 87% 29.72 in 5.0 mi South 11.5 mph - N/A   Mostly Cloudy
5:53 AM 33.1 °F 23.0 °F 30.0 °F 89% 29.76 in 6.0 mi South 15.0 mph - N/A   Overcast
6:53 AM 33.1 °F 22.2 °F 28.9 °F 85% 29.73 in 6.0 mi South 17.3 mph 23.0 mph N/A   Overcast
7:36 AM 32.0 °F 23.0 °F 28.4 °F 87% 29.63 in 5.0 mi South 11.5 mph - N/A   Scattered Clouds
7:49 AM 32.0 °F 22.5 °F 28.4 °F 87% 29.61 in 5.0 mi SSW 12.7 mph 21.9 mph N/A   Mostly Cloudy
7:53 AM 32.0 °F 24.2 °F 28.0 °F 85% 29.70 in 5.0 mi South 9.2 mph 21.9 mph N/A   Scattered Clouds
8:53 AM 33.1 °F 21.5 °F 28.0 °F 82% 29.68 in 6.0 mi South 19.6 mph - N/A   Haze
9:53 AM 36.0 °F 27.5 °F 30.0 °F 79% 29.65 in 6.0 mi SSW 12.7 mph - N/A   Haze
10:53 AM 39.0 °F 29.0 °F 30.9 °F 73% 29.59 in 7.0 mi South 20.7 mph - N/A   Mostly Cloudy
11:53 AM 46.9 °F - 33.1 °F 59% 29.53 in 8.0 mi SSW 21.9 mph 25.3 mph N/A   Clear
12:53 PM 55.0 °F - 32.0 °F 42% 29.47 in 10.0 mi South 23.0 mph 28.8 mph N/A   Clear
1:42 PM 60.8 °F - 23.0 °F 23% 29.39 in 9.0 mi West 34.5 mph 43.7 mph N/A   Overcast
1:53 PM 61.0 °F - 18.0 °F 19% 29.42 in 7.0 mi West 38.0 mph 47.2 mph N/A   Mostly Cloudy
2:53 PM 57.0 °F - 18.0 °F 22% 29.43 in 6.0 mi WNW 32.2 mph 47.2 mph N/A   Haze
3:53 PM 57.9 °F - 8.1 °F 14% 29.43 in 6.0 mi West 35.7 mph 47.2 mph N/A   Haze
4:53 PM 51.1 °F - 25.0 °F 36% 29.48 in 10.0 mi NW 19.6 mph 29.9 mph N/A   Mostly Cloudy
5:21 PM 46.4 °F 35.1 °F 28.4 °F 50% 29.51 in 1.5 mi NW 47.2 mph 65.6 mph N/A   Haze
5:27 PM 42.8 °F 30.5 °F 30.2 °F 61% 29.51 in 0.8 mi NW 42.6 mph 65.6 mph 0.00 in Rain Light Rain
5:34 PM 39.2 °F 27.0 °F 30.2 °F 70% 29.52 in 1.2 mi NW 32.2 mph 58.7 mph 0.00 in Rain Light Rain
5:42 PM 37.4 °F 23.5 °F 30.2 °F 75% 29.52 in 2.0 mi NW 39.1 mph 50.6 mph 0.00 in   Haze
5:50 PM 37.4 °F 24.2 °F 30.2 °F 75% 29.52 in 1.8 mi NW 34.5 mph 52.9 mph 0.00 in   Haze
5:53 PM 39.0 °F 27.2 °F 30.9 °F 73% 29.59 in 2.5 mi NW 29.9 mph 52.9 mph 0.00 in   Haze
6:00 PM 39.2 °F 27.8 °F 30.2 °F 70% 29.54 in 8.0 mi WNW 27.6 mph 40.3 mph N/A   Partly Cloudy
6:53 PM 35.1 °F 22.7 °F 28.9 °F 78% 29.68 in 10.0 mi WNW 25.3 mph 33.4 mph N/A   Clear
7:53 PM 35.1 °F 22.7 °F 25.0 °F 67% 29.76 in 10.0 mi West 25.3 mph 33.4 mph N/A   Mostly Cloudy
8:53 PM 35.1 °F 22.5 °F 21.9 °F 59% 29.82 in 10.0 mi WNW 26.5 mph 40.3 mph N/A   Overcast
9:53 PM 32.0 °F 21.6 °F 23.0 °F 69% 29.85 in 10.0 mi West 15.0 mph - N/A   Mostly Cloudy
10:53 PM 30.9 °F 19.8 °F 24.1 °F 76% 29.87 in 10.0 mi West 16.1 mph - N/A   Clear
11:53 PM 30.9 °F 20.2 °F 21.9 °F 69% 29.88 in 10.0 mi WNW 15.0 mph - N/A   Clear